Location: *
(45.9500°N, 9.0833°E)
Time: 20:56:21
(UTC+00:00)

Cosmos 968 Rocket - Pass Details

Date: 03 March 2021
Orbit: 740 x 771 km, 74.0° (Epoch: 20 April)

Event Time Altitude Azimuth Distance (km) Brightness Sun altitude
Rises 17:48:32 0° 338° (NNW) 3,249 7.0 -7.0°
Reaches altitude 10° 17:50:55 10° 339° (NNW) 2,321 6.3 -7.4°
Maximum altitude 17:56:12 84° 67° (ENE) 781 3.5 -8.3°
Drops below altitude 10° 18:01:28 10° 158° (SSE) 2,308 5.8 -9.2°
Sets 18:03:50 0° 159° (SSE) 3,230 6.5 -9.6°
